• In Romania
  • List of Countries
  • For 7 days
  • Water Temperature
  • Satellite Maps
  • Weather Map
  • Weather Widgets
  • user-avatar
    Login

    Hourly Weather Polunino

    Today, 21 May, Monday

    Time Temperature Precipitation Wind Pressure Humidity
    00:00 +9°C° 0 mm 5 mps 745 mmHg 86%
    01:00 +9°C° 0.1 mm 5 mps 745 mmHg 85%
    02:00 +9°C° 0.1 mm 5 mps 745 mmHg 84%
    03:00 +8°C° 0 mm 4 mps 745 mmHg 83%
    04:00 +8°C° 0 mm 5 mps 746 mmHg 83%
    05:00 +8°C° 0 mm 5 mps 746 mmHg 84%
    06:00 +8°C° 0 mm 5 mps 747 mmHg 84%
    07:00 +9°C° 0 mm 6 mps 747 mmHg 79%
    08:00 +10°C° 0 mm 6 mps 747 mmHg 75%
    09:00 +11°C° 0 mm 7 mps 747 mmHg 70%
    10:00 +12°C° 0 mm 7 mps 747 mmHg 68%
    11:00 +14°C° 0 mm 7 mps 747 mmHg 65%
    12:00 +15°C° 0 mm 7 mps 748 mmHg 62%
    13:00 +15°C° 0 mm 7 mps 748 mmHg 62%
    14:00 +16°C° 0 mm 7 mps 748 mmHg 61%
    15:00 +17°C° 0 mm 7 mps 748 mmHg 61%
    16:00 +16°C° 0 mm 7 mps 748 mmHg 63%
    17:00 +16°C° 0 mm 6 mps 748 mmHg 65%
    18:00 +15°C° 0 mm 6 mps 748 mmHg 68%
    19:00 +14°C° 0 mm 5 mps 748 mmHg 70%
    20:00 +13°C° 0 mm 5 mps 748 mmHg 73%
    21:00 +12°C° 0 mm 5 mps 748 mmHg 75%
    22:00 +12°C° 0.1 mm 5 mps 748 mmHg 76%
    23:00 +12°C° 0.1 mm 5 mps 748 mmHg 76%

    Tomorrow, 22 May, Tuesday

    Time Temperature Precipitation Wind Pressure Humidity
    00:00 +10°C° 0.1 mm 5 mps 748 mmHg 77%
    01:00 +10°C° 0.1 mm 5 mps 748 mmHg 76%
    02:00 +10°C° 0.1 mm 5 mps 748 mmHg 76%
    03:00 +10°C° 0.1 mm 5 mps 748 mmHg 75%
    04:00 +10°C° 0 mm 5 mps 748 mmHg 76%
    05:00 +10°C° 0 mm 5 mps 748 mmHg 76%
    06:00 +10°C° 0 mm 5 mps 748 mmHg 77%
    07:00 +10°C° 0.1 mm 6 mps 748 mmHg 78%
    08:00 +10°C° 0.1 mm 6 mps 749 mmHg 79%
    09:00 +11°C° 0.1 mm 6 mps 749 mmHg 80%
    10:00 +13°C° 0 mm 6 mps 749 mmHg 80%
    11:00 +14°C° 0 mm 6 mps 749 mmHg 81%
    12:00 +15°C° 0 mm 6 mps 749 mmHg 81%
    13:00 +16°C° 0 mm 5 mps 748 mmHg 79%
    14:00 +17°C° 0 mm 5 mps 748 mmHg 77%
    15:00 +20°C° 0 mm 5 mps 748 mmHg 75%
    16:00 +19°C° 0 mm 4 mps 748 mmHg 78%
    17:00 +19°C° 0 mm 3 mps 748 mmHg 82%
    18:00 +18°C° 0 mm 3 mps 747 mmHg 85%
    19:00 +17°C° 0 mm 2 mps 747 mmHg 88%
    20:00 +16°C° 0 mm 2 mps 747 mmHg 90%
    21:00 +16°C° 0 mm 2 mps 747 mmHg 93%
    22:00 +15°C° 0 mm 2 mps 747 mmHg 93%
    23:00 +15°C° 0 mm 1 mps 747 mmHg 94%

    Day after tomorrow, 23 May, Wednesday

    Time Temperature Precipitation Wind Pressure Humidity
    00:00 +14°C° 0 mm 1 mps 747 mmHg 95%
    01:00 +14°C° 0 mm 1 mps 747 mmHg 95%
    02:00 +14°C° 0 mm 1 mps 747 mmHg 95%
    03:00 +13°C° 0 mm 1 mps 747 mmHg 95%
    04:00 +14°C° 0 mm 1 mps 747 mmHg 95%
    05:00 +14°C° 0 mm 1 mps 747 mmHg 95%
    06:00 +15°C° 0 mm 1 mps 747 mmHg 94%
    07:00 +16°C° 0 mm 1 mps 747 mmHg 89%
    08:00 +19°C° 0 mm 1 mps 748 mmHg 84%
    09:00 +20°C° 0 mm 1 mps 748 mmHg 79%
    10:00 +22°C° 0 mm 1 mps 747 mmHg 72%
    11:00 +23°C° 0 mm 1 mps 747 mmHg 66%
    12:00 +24°C° 0 mm 2 mps 747 mmHg 60%
    13:00 +24°C° 0 mm 2 mps 747 mmHg 57%
    14:00 +25°C° 0 mm 2 mps 747 mmHg 55%
    15:00 +25°C° 0 mm 2 mps 747 mmHg 53%
    16:00 +25°C° 0 mm 2 mps 746 mmHg 56%
    17:00 +25°C° 0 mm 2 mps 746 mmHg 59%
    18:00 +25°C° 0 mm 1 mps 745 mmHg 61%
    19:00 +23°C° 0 mm 1 mps 745 mmHg 66%
    20:00 +21°C° 0 mm 1 mps 745 mmHg 71%
    21:00 +19°C° 0 mm 1 mps 745 mmHg 76%
    22:00 +18°C° 0 mm 1 mps 745 mmHg 77%
    23:00 +18°C° 0 mm 1 mps 745 mmHg 79%

    24 May, Thursday

    Time Temperature Precipitation Wind Pressure Humidity
    00:00 +16°C° 0 mm 1 mps 745 mmHg 81%
    01:00 +16°C° 0 mm 1 mps 745 mmHg 82%
    02:00 +15°C° 0 mm 1 mps 745 mmHg 83%
    03:00 +15°C° 0 mm 1 mps 745 mmHg 84%
    04:00 +15°C° 0 mm 1 mps 745 mmHg 84%
    05:00 +16°C° 0 mm 1 mps 744 mmHg 84%
    06:00 +16°C° 0 mm 1 mps 744 mmHg 85%
    07:00 +19°C° 0 mm 1 mps 744 mmHg 80%
    08:00 +19°C° 0 mm 2 mps 745 mmHg 75%
    09:00 +21°C° 0 mm 2 mps 745 mmHg 70%
    10:00 +21°C° 0.1 mm 2 mps 744 mmHg 67%
    11:00 +22°C° 0.1 mm 3 mps 744 mmHg 64%
    12:00 +24°C° 0.1 mm 3 mps 744 mmHg 61%
    13:00 +24°C° 0.1 mm 3 mps 744 mmHg 60%
    14:00 +23°C° 0.1 mm 4 mps 744 mmHg 59%
    15:00 +23°C° 0.1 mm 4 mps 743 mmHg 58%
    16:00 +23°C° 0 mm 4 mps 743 mmHg 61%
    17:00 +23°C° 0 mm 4 mps 743 mmHg 64%
    18:00 +22°C° 0 mm 3 mps 743 mmHg 66%
    19:00 +20°C° 0 mm 4 mps 743 mmHg 70%
    20:00 +19°C° 0 mm 4 mps 744 mmHg 75%
    21:00 +17°C° 0 mm 4 mps 744 mmHg 79%
    22:00 +15°C° 0 mm 5 mps 744 mmHg 81%
    23:00 +14°C° 0 mm 5 mps 745 mmHg 83%

    25 May, Friday

    Time Temperature Precipitation Wind Pressure Humidity
    00:00 +13°C° 0 mm 5 mps 745 mmHg 86%
    01:00 +11°C° 0 mm 6 mps 745 mmHg 84%
    02:00 +10°C° 0 mm 6 mps 746 mmHg 83%
    03:00 +10°C° 0 mm 6 mps 746 mmHg 82%
    04:00 +9°C° 0 mm 6 mps 746 mmHg 81%
    05:00 +9°C° 0 mm 6 mps 747 mmHg 79%
    06:00 +9°C° 0 mm 6 mps 747 mmHg 78%
    07:00 +9°C° 0 mm 7 mps 747 mmHg 71%
    08:00 +10°C° 0 mm 7 mps 748 mmHg 65%
    09:00 +10°C° 0 mm 7 mps 748 mmHg 58%
    10:00 +11°C° 0 mm 7 mps 748 mmHg 56%
    11:00 +12°C° 0 mm 7 mps 748 mmHg 54%
    12:00 +12°C° 0 mm 8 mps 748 mmHg 51%
    13:00 +12°C° 0 mm 8 mps 749 mmHg 51%
    14:00 +13°C° 0 mm 8 mps 749 mmHg 50%
    15:00 +13°C° 0 mm 8 mps 749 mmHg 49%
    16:00 +12°C° 0 mm 7 mps 749 mmHg 51%
    17:00 +12°C° 0 mm 7 mps 749 mmHg 53%
    18:00 +11°C° 0 mm 7 mps 749 mmHg 55%
    19:00 +10°C° 0 mm 6 mps 749 mmHg 57%
    20:00 +9°C° 0 mm 5 mps 750 mmHg 58%
    21:00 +7°C° 0 mm 5 mps 750 mmHg 60%
    22:00 +7°C° 0 mm 4 mps 751 mmHg 59%
    23:00 +6°C° 0 mm 4 mps 751 mmHg 59%

    26 May, Saturday

    Time Temperature Precipitation Wind Pressure Humidity
    00:00 +5°C° 0 mm 4 mps 751 mmHg 58%
    01:00 +5°C° 0 mm 4 mps 752 mmHg 61%
    02:00 +4°C° 0 mm 3 mps 752 mmHg 63%
    03:00 +3°C° 0 mm 3 mps 752 mmHg 66%
    04:00 +4°C° 0 mm 3 mps 753 mmHg 67%
    05:00 +4°C° 0 mm 4 mps 753 mmHg 68%
    06:00 +5°C° 0 mm 4 mps 753 mmHg 69%
    07:00 +6°C° 0 mm 4 mps 753 mmHg 62%
    08:00 +8°C° 0 mm 5 mps 754 mmHg 56%
    09:00 +10°C° 0 mm 5 mps 754 mmHg 50%
    10:00 +12°C° 0 mm 5 mps 754 mmHg 49%
    11:00 +13°C° 0 mm 5 mps 754 mmHg 48%
    12:00 +14°C° 0 mm 5 mps 754 mmHg 46%
    13:00 +15°C° 0 mm 5 mps 753 mmHg 47%
    14:00 +15°C° 0 mm 5 mps 753 mmHg 48%
    15:00 +16°C° 0 mm 5 mps 753 mmHg 49%
    16:00 +17°C° 0 mm 4 mps 753 mmHg 52%
    17:00 +17°C° 0 mm 4 mps 752 mmHg 56%
    18:00 +18°C° 0 mm 3 mps 752 mmHg 59%
    19:00 +16°C° 0 mm 3 mps 752 mmHg 64%
    20:00 +14°C° 0 mm 3 mps 752 mmHg 69%
    21:00 +13°C° 0 mm 2 mps 752 mmHg 73%
    22:00 +11°C° 0 mm 3 mps 752 mmHg 75%
    23:00 +11°C° 0 mm 3 mps 752 mmHg 76%
    Show more